Location: Newark
(22.3828°N, 114.1972°E)
Time: 05:19:55
(UTC+00:00)

N. Korean satellite - Visible Passes

Search period start: 06 December 2019 00:00
Search period end: 16 December 2019 00:00
Orbit: 456 x 506 km, 97.2° (Epoch: 05 December)

Date Brightness Start Highest point End Pass type
(mag) Time Alt. Az. Time Alt. Az. Time Alt. Az.
07 Dec 10.0 10:33:32 10° SW 10:35:35 14° W 10:37:39 10° WNW visible
07 Dec 6.4 22:07:58 10° N 22:11:28 78° WNW 22:14:54 10° SSW visible
08 Dec 8.7 10:06:45 10° SSW 10:10:07 33° W 10:13:30 10° NNW visible
08 Dec 8.1 21:42:48 10° NNE 21:46:02 36° E 21:49:15 10° SSE visible
09 Dec 9.8 21:18:31 10° ENE 21:20:33 15° E 21:22:35 10° SE visible
10 Dec 7.0 22:25:13 10° N 22:28:27 38° WNW 22:31:39 10° SW visible
11 Dec 9.8 10:24:34 10° SW 10:27:13 19° W 10:29:52 10° NW visible
11 Dec 6.6 21:59:37 10° NNE 22:03:05 75° E 22:06:30 10° S visible
12 Dec 8.0 09:58:13 10° S 10:01:46 45° W 10:05:19 10° NNW visible
12 Dec 8.8 21:34:39 10° NE 21:37:38 27° E 21:40:35 10° SSE visible
13 Dec 10.0 21:11:08 10° E 21:12:07 11° E 21:13:07 10° ESE visible
14 Dec 10.4 10:43:43 10° WSW 10:44:20 10° W 10:44:56 10° W visible
14 Dec 6.5 22:16:42 10° N 22:20:04 53° WNW 22:23:24 10° SSW visible
15 Dec 9.3 10:15:47 10° SSW 10:18:49 24° W 10:21:52 10° NW visible
15 Dec 7.3 21:51:18 10° NNE 21:54:40 52° E 21:57:59 10° S visible
